Location: Wangen+im+Allg�u
(47.7098°N, 9.8383°E)
Time: 16:02:08
(UTC+01:00)

ISS - Pass Details

Date: 12 November 2017
Orbit: 402 x 407 km, 51.6° (Epoch: 22 November)

Event Time Altitude Azimuth Distance (km) Brightness Sun altitude
Exits shadow 05:52:31 32° 305° (NW) 716 -3.1 -15.1°
Maximum altitude 05:53:51 68° 19° (NNE) 437 -3.7 -14.8°
Drops below altitude 10° 05:57:05 10° 104° (ESE) 1,454 0.4 -14.3°
Sets 05:59:10 0° 107° (ESE) 2,311 2.0 -14.0°
